Lid_Strength_Index
4 3 3 3 3 2 2 2 4 6 5 3 3 1 1 1 1 1 2 2 2 3 3 3 2 2 1 0 -1 -1 -1 -1 -2 -2 -1 -0 1 1
3 3 3 3 3 3 3 2 2 3 5 2 2 1 1 0 -0 1 2 2 3 2 3 3 2 1 0 0 0 -0 -0 -1 -1 -1 -0 -0 0 1
3 2 3 3 3 2 2 2 2 2 4 3 2 1 1 1 0 1 1 2 2 3 2 1 2 2 1 1 1 1 0 0 0 0 1 1 1 1
3 2 3 2 3 3 2 2 2 2 3 4 2 2 2 2 1 1 0 1 2 2 2 1 2 2 2 2 2 2 2 2 2 2 1 2 2 2
2 2 2 3 3 2 2 2 2 2 2 2 3 3 2 2 2 3 3 3 2 1 1 1 2 2 2 3 3 3 4 4 4 4 4 3 3 3
2 2 2 2 2 2 2 3 3 3 3 3 4 5 4 4 3 4 5 5 5 3 2 2 2 3 3 3 3 3 5 6 6 6 6 6 6 5
1 1 1 1 2 2 2 3 3 3 4 5 6 6 6 6 5 6 5 4 3 2 5 5 5 5 5 4 3 3 4 5 6 6 6 7 8 8
2 2 2 2 3 5 5 4 3 3 4 5 6 6 6 5 5 5 4 4 4 3 4 4 6 6 6 6 5 6 6 6 6 7 7 7 8 8
1 1 2 1 2 2 6 6 6 6 5 4 5 5 5 3 3 4 4 4 5 3 4 5 5 5 4 4 5 6 7 7 8 7 8 8 8 8
1 1 1 2 2 3 4 4 4 3 3 2 3 3 3 3 2 3 4 4 4 6 4 5 6 7 6 8 7 7 7 8 8 8 8 8 8 8
1 1 1 2 6 8 3 4 6 7 8 8 7 7 8 8 5 3 5 6 8 7 6 8 8 8 8 7 7 7 8 8 8 8 8 7 7 7
4 3 6 4 9 8 3 4 5 6 7 8 9 10 9 8 7 6 5 8 8 9 7 8 8 8 9 7 7 8 8 8 8 8 7 7 7 7
6 5 6 10 9 7 6 3 4 6 6 5 6 5 5 6 6 6 7 7 8 8 5 6 7 7 9 10 10 9 9 9 8 8 7 7 7 7
4 5 6 10 10 9 7 10 9 7 6 5 6 7 7 8 8 8 8 7 6 7 6 6 7 9 12 12 12 10 9 9 9 9 8 7 7 8
4 7 11 11 11 10 10 10 8 7 5 6 8 9 9 8 8 8 7 7 6 6 7 8 10 11 11 12 12 12 11 10 9 10 9 9 9 9
7 10 10 10 10 10 10 9 7 6 6 7 9 9 9 9 9 8 8 7 9 11 10 9 11 11 13 13 13 13 12 12 11 10 9 10 9 9
9 11 12 12 11 11 10 9 6 6 7 8 9 9 9 9 9 9 9 10 12 13 13 12 11 11 12 12 13 12 12 12 10 10 11 10 9 9
8 10 10 11 10 8 7 6 6 7 8 8 9 9 10 10 10 10 11 12 13 13 13 13 13 13 13 12 9 12 12 11 10 10 10 11 10 7
6 7 7 7 7 6 5 6 7 7 8 7 9 10 10 11 11 12 12 12 13 14 14 13 13 14 16 16 12 8 12 11 11 11 11 11 9 7
5 5 5 5 5 5 6 7 9 9 9 10 10 10 9 10 11 11 13 13 13 14 14 13 14 14 15 15 14 11 10 11 11 11 10 9 7 6
5 5 4 4 4 6 7 8 8 8 9 10 9 8 10 10 11 13 13 14 14 13 14 15 14 13 12 12 15 14 11 8 8 9 8 9 9 8
6 6 6 6 6 7 8 9 9 10 10 8 9 9 10 10 11 12 13 13 13 13 14 14 13 13 14 14 16 14 12 12 8 6 5 5 7 9
7 6 7 8 8 8 8 8 9 9 9 9 9 10 10 11 11 12 12 12 13 13 14 15 13 14 14 13 16 15 13 13 10 11 10 6 6 5